Вернуться в каталог

HEALTHSAT 1

АктивенНаукаSSO
NORAD 22827·PAYLOAD·🇺🇸 United States

Запущен Sep 26, 1993 с Guiana Space Centre

Loading…

Ближайшие Пролёты (ближайшие 24 часа)

TLE

СвежийSource: Space-Track

Эпоха: Sep 14, 2026, 10:37 UTC

1 22827U 93061E   26257.44268157  .00000106  00000-0  55220-4 0  9994
2 22827  98.6327 325.5520 0009846 121.1170 251.7480 14.32574824720871

Отслеживайте HEALTHSAT 1 в реальном времени с AllMySat

Download on the App Store